TITAN 3C TRANSTAGE DEB, 1716

Orbit data source: Space-Track

TITAN 3C TRANSTAGE DEB, 1716 is space debris in LEO originally from a launch on Fri, 15 Oct 1965 UTC launched from the Air Force Eastern Test Range (AFETR). Debris objects in space refer to the collection of defunct objects orbiting the Earth. Examples of debris include non-operational satellites, rocket bodies, and fragments generated from explosions, collisions, or faulty payload assembly.

Loading next visibility...
Identifier
1716, 1965-082BX
Orbit
LEO
Country
Flag of USUS
Related business
Manufacturer
Unknown
Mission
Spacecraft
Bus & Motor
Unknown
Mass
Unknown
Launch date (UTC)
1965-10-15 (60 years ago)
Launch vehicle
Unknown
Launch site
Air Force Eastern Test Range (AFETR)
Object type
Payload
Rocket body
Debris
Shape & HBR
Unknown shape, 0.9 m
Radar Cross Section
Large (>1 m²)

Expand to show TLE details & history
Last TLE update: 11 hours ago

TLE from 11 hours ago
0 TITAN 3C TRANSTAGE DEB
1 01716U 65082BX  26071.24392429  .00000867  00000-0  17817-3 0  9995
2 01716  32.1890 156.7010 0037874 172.1608 187.9634 14.57477841194341
Epoch: 2026-03-12T05:51Z
TLE epoch observation values (Epoch: 2026-03-12T05:51:15.058Z)
Latitude
-0.00004°
Longitude
-101.0084°
Altitude
726.538 km
Speed
7.48 km/s
True Right ascension
10h 26m 48s
True Declination
0° 00' 00"
Sunlit
Object was in full shadow at epoch
Visualization orbit readout
Latitude
Unknown
Longitude
Unknown
Altitude
Unknown
Speed
Unknown
Apparent Right ascension
Unknown
Apparent Declination
Unknown
Sunlit
N/A
Visualization observer readout
Local Sidereal Time
20:48:39
Azimuth
Unknown
Elevation
Unknown
Doppler factor
Unknown
Orbital elements
Apogee altitude
731.735 km
Perigee altitude
678.082 km
Semi-major axis
7,083.045 km
Eccentricity
0.00379
Inclination
32.189°
RAAN
156.701°
Arg. of periapsis
172.1608°
True anomaly
187.90355°
Mean anomaly
187.9634°
Eccentric anomaly
187.93345°
Mean motion
3.64094 °/min
Orbital period
98.88 mins
BSTAR
0.00017817

Documentation

Showing up to 5 results
|